Location: Kosice
(48.7170°N, 21.2500°E)
Time: 04:53:19
(UTC+02:00)

ISS - Pass Details

Date: 30 March 2019
Orbit: 408 x 410 km, 51.6° (Epoch: 21 April)

Event Time Altitude Azimuth Distance (km) Brightness Sun altitude
Rises 19:15:16 0° 280° (W) 2,337 1.9 -12.5°
Reaches altitude 10° 19:17:24 10° 286° (WNW) 1,475 0.5 -12.8°
Maximum altitude 19:20:37 48° 2° (N) 541 -3.1 -13.3°
Enters shadow 19:22:40 20° 71° (ENE) 1,026 -2.2 -13.6°
